Location: Gorsel
(52.2005°N, 6.2003°E)
Time: 02:39:26
(UTC+00:00)

Daily predictions for brighter satellites

Satellite Brightness Start Highest point End
(mag) Time Altitude Azimuth Time Altitude Azimuth Time Altitude Azimuth
Cosmos 2297 Rocket 2.6 00:03:14 10° NNW 00:08:52 64° NE 00:14:28 10° SE
Cosmos 1862 4.2 00:07:57 21° SE 00:09:46 35° E 00:13:10 10° NNE
Cosmos 1782 2.5 00:06:23 10° N 00:10:05 90° W 00:11:51 29° S
Cosmos 1726 Rocket 3.9 00:08:17 10° N 00:12:44 62° ENE 00:15:54 19° SSE
Cosmos 2112 Rocket 4.0 00:09:02 10° NNW 00:14:19 89° ENE 00:18:23 17° SSE
BREEZE-M DEB (TANK) 4.0 00:12:26 10° WSW 00:16:50 73° S 00:34:50 10° E
Cosmos 2058 2.7 00:18:00 28° S 00:20:02 88° E 00:24:00 10° N
Cosmos 1892 Rocket 4.4 00:18:39 19° SSE 00:21:18 40° E 00:25:22 10° NNE
Cosmos 44 2.9 00:19:22 22° SW 00:22:05 84° SE 00:26:32 10° NE
Resurs 1-4 Rocket 4.5 00:26:25 10° NE 00:28:57 13° E 00:31:29 10° ESE
ATLAS 5 CENTAUR R/B 4.4 00:26:37 10° NW 00:29:02 16° N 00:31:42 10° NE
Cosmos 1680 Rocket 3.6 00:24:32 10° NNW 00:29:44 61° WSW 00:33:13 21° S
RESURS DK-1 2.2 00:27:42 10° NNW 00:31:44 85° ENE 00:34:58 15° SSE
Spot 2 4.4 00:29:12 15° SSE 00:32:33 58° ENE 00:36:31 10° N
H-2A R/B 2.1 00:34:14 24° SSE 00:36:25 85° W 00:40:14 10° NNW
Cosmos 1697 Rocket 4.1 00:32:50 13° SSE 00:36:41 27° ESE 00:41:20 10° NE
Cosmos 1656 3.8 00:33:45 21° S 00:37:26 63° ESE 00:42:57 10° NE
SeaSat 1 2.9 00:33:25 10° SE 00:38:15 64° NE 00:43:07 10° NNW
Cosmos 2227 Rocket 2.9 00:34:44 10° NNW 00:40:21 55° NE 00:45:55 10° SE
Cosmos 1400 Rocket 4.1 00:38:40 10° NW 00:41:53 25° W 00:43:29 19° SW
Cosmos 1356 Rocket 3.4 00:40:36 10° N 00:44:34 74° ENE 00:47:29 18° SSE
BlueWalker 3 1.9 00:42:13 10° W 00:45:53 79° N 00:49:33 10° E
ATLAS 2AS CENTAUR R/B 3.8 00:39:23 10° NW 00:45:59 46° NNE 00:52:25 10° E
Cosmos 1602 3.2 00:46:12 29° S 00:47:44 83° E 00:50:58 10° NNE
Cosmos-2242 3.6 00:45:14 10° N 00:49:21 53° ENE 00:53:05 12° SSE
Cosmos 1937 Rocket 3.8 00:47:15 17° SW 00:51:05 60° WNW 00:56:10 10° NNE
ISS -3.9 00:50:31 10° W 00:53:52 74° S 00:57:13 10° ESE
H-2A R/B 4.0 00:51:19 10° NE 00:54:28 20° E 00:57:38 10° SE
Cosmos 2315 Rocket 4.3 00:50:21 10° NNW 00:56:34 55° W 01:01:14 18° SSW
Cosmos 1441 Rocket 3.4 00:58:03 21° S 01:00:09 55° E 01:03:37 10° NNE
Landsat 4 3.4 01:03:33 28° SSW 01:04:37 45° WSW 01:07:22 10° NNW
Cosmos 1933 3.6 01:01:00 10° NNW 01:04:46 50° W 01:07:01 22° SSW
Cosmos 2221 4.3 01:06:03 10° N 01:09:49 29° ENE 01:13:33 10° SE
CZ-2C R/B 3.3 01:11:02 18° SSW 01:14:44 40° W 01:19:59 10° NNW
Meteor 2-3 Rocket 3.8 01:10:11 17° S 01:14:46 90° E 01:20:36 10° NNE
Cosmos 1048 Rocket 4.1 01:16:15 10° NNW 01:21:34 64° WSW 01:26:51 10° S
Cosmos 2058 Rocket 3.3 01:17:48 10° NNW 01:22:08 56° W 01:25:28 17° S
Cosmos 1315 Rocket 2.9 01:18:42 10° NNW 01:22:26 55° W 01:25:07 18° S
Cosmos 1655 Rocket 4.4 01:20:19 16° SSW 01:25:26 55° WNW 01:31:44 10° N
IDEFIX/ARIANE 42P 2.7 01:22:34 10° NNE 01:27:48 76° ESE 01:32:15 14° S
BREEZE-M DEB 4.5 01:10:05 10° W 01:27:54 73° S 01:32:15 10° E
Cosmos 1812 Rocket 4.2 01:25:58 10° N 01:30:20 55° ENE 01:34:37 10° SSE
Lacrosse 5 rocket 2.3 01:31:15 10° WNW 01:35:06 48° NNE 01:38:55 10° E
CZ-2C R/B 3.7 01:30:40 10° N 01:35:15 40° WNW 01:39:09 13° SW
SL-08 R/B 4.5 01:33:23 13° S 01:38:49 86° W 01:44:59 10° N
Cosmos 2219 3.7 01:33:10 10° NNW 01:38:52 65° NE 01:44:29 10° SE
Meteor 1-26 Rocket 4.2 01:34:03 10° NNW 01:39:24 63° W 01:44:35 11° S
Cosmos 2360 4.4 01:36:32 14° SW 01:41:30 71° NW 01:47:13 10° NNE
CZ-4C R/B 3.2 01:38:21 10° W 01:42:58 42° NNW 01:48:52 10° NE
ADEOS II 3.4 01:39:06 10° NNE 01:43:50 33° E 01:48:33 10° SSE
Cosmos 921 Rocket 4.3 01:40:16 10° NNW 01:44:33 43° ENE 01:48:45 10° SE
Cosmos 2263 Rocket 2.3 01:40:29 10° NNW 01:46:11 82° ENE 01:51:49 10° SSE
Cosmos 1867 4.1 01:40:58 10° WSW 01:46:19 55° NW 01:51:43 10° NE
SL-16 R/B 3.9 01:41:50 10° SE 01:47:38 42° ENE 01:53:28 10° N
Cosmos 1238 Rocket 4.0 01:45:28 10° N 01:50:43 64° ENE 01:55:54 10° SSE
Gbstr 26 Del rocket 4.2 01:45:07 10° WNW 01:51:17 59° SSW 01:58:35 10° SE
Cosmos 2297 Rocket 3.2 01:47:49 10° NW 01:52:30 27° WSW 01:56:44 12° SSW
CZ-2D R/B 2.7 01:50:09 10° NNE 01:55:20 54° E 02:00:26 10° S
MOZ.5/SAFIR/RUBIN 5/SL-8 4.2 01:56:34 10° S 02:00:57 45° W 02:05:27 10° NNW
BREEZE-M DEB (TANK) 2.9 02:00:24 10° W 02:02:20 20° SSW 02:04:04 10° SSE
Meteor 2-6 Rocket 4.3 01:59:52 10° NNW 02:05:31 72° W 02:11:17 10° S
RESURS DK-1 4.3 02:06:48 10° WNW 02:08:35 13° WSW 02:10:15 10° SW
Cosmos 1758 Rocket 3.7 02:05:25 11° SSW 02:09:34 65° WNW 02:13:58 10° N
Cosmos 1602 Rocket 3.5 02:05:19 10° S 02:09:36 89° W 02:13:57 10° N
Resurs 1-4 Rocket 2.3 02:04:19 10° NNE 02:09:38 76° ESE 02:14:57 10° S
Cosmos 1980 Rocket 2.6 02:05:26 10° SSW 02:10:54 60° ESE 02:16:26 10° NE
Tiangong 0.3 02:10:54 10° S 02:11:44 11° SSE 02:12:35 10° SSE
Nadezhda 1 Rocket 4.2 02:05:43 10° NNW 02:11:54 59° W 02:17:56 10° S
ATLAS 5 CENTAUR R/B 3.9 02:09:24 10° NW 02:12:57 29° NNE 02:17:12 10° E
SeaSat 1 3.5 02:11:57 10° SSW 02:15:59 26° WSW 02:20:03 10° NW
Cosmos 1626 Rocket 4.1 02:12:06 11° SSW 02:16:08 46° WNW 02:20:22 10° N
H-2A R/B 4.0 02:14:34 10° NE 02:18:40 25° E 02:22:41 10° SSE
Cosmos 1745 Rocket 4.1 02:12:54 10° SSW 02:19:14 75° WNW 02:25:38 10° N
Cosmos 1697 Rocket 2.9 02:14:35 10° SW 02:20:12 66° NW 02:25:53 10° NNE
Cosmos 614 Rocket 4.1 02:17:15 10° NNW 02:22:08 51° WSW 02:27:00 10° S
FENGYUN 3A 3.8 02:16:48 10° N 02:22:10 67° WNW 02:27:31 10° SSW
BlueWalker 3 2.1 02:19:58 10° WNW 02:23:29 44° SSW 02:26:58 10° SE
Cosmos 2227 Rocket 3.0 02:19:09 10° NW 02:24:09 33° WSW 02:29:06 10° SSW
Cosmos 1346 Rocket 4.0 02:21:08 10° SSE 02:24:32 36° E 02:27:57 10° NNE
MSX 4.4 02:19:57 10° N 02:25:25 48° WNW 02:30:54 10° SW
H-2A R/B 2.4 02:26:07 10° N 02:30:09 52° WNW 02:34:14 10° SW
Okean 1 3.9 02:26:54 10° NNW 02:30:19 34° W 02:33:42 10° SSW
ISS -2.9 02:27:21 10° W 02:30:19 29° SSW 02:33:17 10° SSE
Cosmos 2150 Rocket 4.5 02:25:22 10° S 02:30:43 64° ESE 02:36:08 10° NNE
Cosmos 1709 Rocket 4.1 02:27:09 10° SSW 02:33:32 79° W 02:39:55 10° N
ATLAS 2AS CENTAUR R/B 2.7 02:30:30 10° NW 02:37:14 67° SW 02:43:51 10° SSE
USA 290 2.5 02:34:41 10° NW 02:37:53 49° WSW 02:41:04 10° S
Okean 1-7 Rocket 3.8 02:35:52 10° SSW 02:40:15 59° WNW 02:44:43 10° N
